Tracking 19247 objects as of 22-Sep-2018
HD Live streaming from Space Station
objects crossing your sky now

COSMOS 1989 (ETALON 1)

Track COSMOS 1989 (ETALON 1) now!
COSMOS 1989 (ETALON 1) is classified as:


NORAD ID: 19751
Int'l Code: 1989-001C
Perigee: 19,077.0 km
Apogee: 19,188.4 km
Inclination: 64.1 °
Period: 675.6 minutes
Semi major axis: 25503 km
RCS: 1.0844 m2 (large)
Launch date: January 10, 1989
Source: Commonwealth of Independent States (former USSR) (CIS)
Launch site: TYURATAM MISSILE AND SPACE COMPLEX (TTMTR)
SV:
aabbcc
Your satellite tracking list
Your tracking list is empty




NASA's NSSDC Master Catalog

Two Line Element Set (TLE):
1 19751U 89001C   18263.47162406 -.00000028 +00000-0 +00000-0 0  9992
2 19751 064.1475 169.2583 0021850 209.6831 002.0812 02.13156405231119
Source of the keplerian elements: AFSPC